This is the latest recevied weather packets stored in our database for station/object WP3OF-2. If no packets are shown the sender has not sent any weather packets the latest 10 day(s).
| Time | Temp. | Humidity | Pressure | Rain* | Wind** | Luminosity | Snow |
|---|---|---|---|---|---|---|---|
| 1777724429 | 21.11° C | 82% | 1026 hPa | 0 mm | - | 357 W/m² | - |
| 1777724126 | 21.11° C | 84% | 1026 hPa | 0 mm | - | 338 W/m² | - |
| 1777723823 | 20.56° C | 83% | 1026 hPa | 0 mm | - | 325 W/m² | - |
| 1777723520 | 21.11° C | 83% | 1026 hPa | 0 mm | - | 298 W/m² | - |
| 1777723217 | 21.11° C | 82% | 1025.6 hPa | 0 mm | - | 278 W/m² | - |
| 1777722915 | 20.56° C | 81% | 1025.6 hPa | 0 mm | - | 260 W/m² | - |
| 1777722610 | 20.56° C | 81% | 1025.6 hPa | 0 mm | - | 232 W/m² | - |
| 1777722307 | 20.56° C | 81% | 1025.6 hPa | 0 mm | - | 222 W/m² | - |
| 1777722004 | 20.56° C | 80% | 1025.6 hPa | 0 mm | - | 201 W/m² | - |
| 1777721701 | 20.56° C | 80% | 1025.6 hPa | 0 mm | - | 182 W/m² | - |
| 1777721400 | 20.56° C | 79% | 1025.2 hPa | 0 mm | - | 163 W/m² | - |
| 1777721097 | 20.56° C | 78% | 1024.9 hPa | 0 mm | - | 146 W/m² | - |
| 1777720795 | 20.56° C | 77% | 1024.9 hPa | 0 mm | - | 134 W/m² | - |
| 1777720491 | 20.56° C | 76% | 1024.9 hPa | 0 mm | - | 54 W/m² | - |
| 1777720189 | 20.56° C | 77% | 1024.9 hPa | 0 mm | - | 48 W/m² | - |
| 1777719887 | 20.56° C | 76% | 1024.9 hPa | 0 mm | - | 45 W/m² | - |
| 1777719584 | 20.56° C | 74% | 1024.9 hPa | 0 mm | - | 41 W/m² | - |
| 1777719281 | 20° C | 76% | 1024.5 hPa | 0 mm | - | 39 W/m² | - |
| 1777718979 | 20° C | 77% | 1024.9 hPa | 0 mm | - | 35 W/m² | - |
| 1777718676 | 20° C | 74% | 1024.9 hPa | 0 mm | - | 33 W/m² | - |
| 1777718373 | 20° C | 73% | 1024.5 hPa | 0 mm | - | 29 W/m² | - |
| 1777718071 | 20° C | 76% | 1024.9 hPa | 0 mm | - | 26 W/m² | - |
| 1777717767 | 20° C | 76% | 1024.9 hPa | 0 mm | - | 22 W/m² | - |
| 1777717464 | 20° C | 75% | 1024.5 hPa | 0 mm | - | 19 W/m² | - |
| 1777717161 | 19.44° C | 76% | 1024.9 hPa | 0 mm | - | 16 W/m² | - |
* Rain latest hour (hover to see other rain measurements)
** Current wind speed in m/s (hover to see current wind gust speed)